BREEZE-KM R/B, 41580

Orbit data source: Space-Track

BREEZE-KM R/B, 41580 is space debris in SSO originally from a launch on Sat, 04 Jun 2016 UTC launched from the Plesetsk Missile And Space Complex (PKMTR). Debris objects in space refer to the collection of defunct objects orbiting the Earth. Examples of debris include non-operational satellites, rocket bodies, and fragments generated from explosions, collisions, or faulty payload assembly.

Loading next visibility...
Identifier
41580, 2016-034B
Orbit
SSO
Country
Flag of CISCIS
Related business
Manufacturer
Khrunichev
Mission
Spacecraft
Bus & Motor
BRIZ, S5.92
Mass
2,370 kg wet, 2,370 kg dry
Launch date (UTC)
2016-06-04 (10 years ago)
Launch vehicle
Unknown
Launch site
Plesetsk Missile And Space Complex (PKMTR)
Object type
Payload
Rocket body
Debris
Shape & HBR
Hex Cyl + 1 Rod, 2.0 m
Radar Cross Section
10.190 m², Large (>1 m²)

Expand to show TLE details & history
Last TLE update: 2 days ago

TLE from 2 days ago
0 BREEZE-KM R/B
1 41580U 16034B   26171.34011197  .00000024  00000-0  25831-4 0  9994
2 41580  99.1814  37.6789 0210040 179.1192 181.0397 14.25915188522438
Epoch: 2026-06-20T08:09Z
TLE epoch observation values (Epoch: 2026-06-20T08:09:45.674Z)
Latitude
-0.00007°
Longitude
6.68246°
Altitude
959.215 km
Speed
7.294 km/s
True Right ascension
02h 30m 42s
True Declination
0° 00' 00"
Sunlit
Object was in daylight at epoch
Visualization orbit readout
Latitude
Unknown
Longitude
Unknown
Altitude
Unknown
Speed
Unknown
Apparent Right ascension
Unknown
Apparent Declination
Unknown
Sunlit
N/A
Visualization observer readout
Local Sidereal Time
21:23:37
Azimuth
Unknown
Elevation
Unknown
Doppler factor
Unknown
Orbital elements
Apogee altitude
953.413 km
Perigee altitude
651.765 km
Semi-major axis
7,180.726 km
Eccentricity
0.021
Inclination
99.1814°
RAAN
37.6789°
Arg. of periapsis
179.1192°
True anomaly
180.99714°
Mean anomaly
181.0397°
Eccentric anomaly
181.01831°
Mean motion
3.5669 °/min
Orbital period
100.93 mins
BSTAR
0.000025831
Loading maneuver chart data...
Computing Atmospheric mass density...
Loading historical data...
Loading historical data...
Loading historical data...
Loading historical data...
Loading historical data...
Loading historical data...
Loading historical data...
Other satellites on launch #34 in the year 2016 (2016-06-04 UTC)

Documentation

Showing up to 5 results
|